Torna al catalogo

SL-16 DEB

AttivoLEO
NORAD 39709·DEBRIS·🇷🇺 Russia

Lanciato Dec 25, 1992 da Baikonur Cosmodrome

Loading…

Prossimi Passaggi (prossime 24 ore)

TLE

AggiornatoSource: Space-Track

Epoca: Sep 13, 2026, 08:45 UTC

1 39709U 92093JZ  26256.36502837  .00000243  00000-0  19743-3 0  9992
2 39709  71.1452 124.4712 0143940 272.9628  85.5021 13.94718008630504

Traccia SL-16 DEB in tempo reale con AllMySat

Download on the App Store